CAPE
229 383 546 750 905 905 849 958 1065 1157 1064 1041 1441 1549 1194 1443 1128 1285 1757 1485 1220 1081 1284 1186 1060 1030 997 875 1120 1028 655 665 577 498 548 552 649 252 362 445 408 636
31 36 102 286 567 928 1112 1140 1092 1017 1146 1289 1350 1480 1358 1556 1290 1080 1299 1664 1505 1448 1459 1186 580 942 905 625 1102 1362 863 1112 816 1112 919 765 884 520 510 290 256 427
10 26 58 84 206 440 771 1107 1166 1218 1259 1289 1309 1431 1632 1676 1176 774 859 1305 1137 960 747 813 830 1239 1112 1324 1101 542 907 964 986 882 648 554 550 1026 1186 496 400 596
7 9 21 59 134 203 462 868 1116 1186 1136 1279 1222 1150 1321 1480 1470 879 753 1118 854 1076 743 736 884 1083 758 660 594 1109 898 1020 1215 999 883 733 893 706 888 971 702 981
8 9 9 9 14 39 128 433 879 1010 1131 1172 1138 1205 1277 1073 1180 1154 802 753 840 963 623 526 970 1000 744 959 1151 738 1012 1459 1403 1113 1055 1071 1036 810 636 642 725 351
7 6 6 4 5 6 78 248 528 905 1112 1119 1132 1102 1082 1132 1105 969 718 480 549 962 457 410 774 825 815 473 548 776 710 553 610 698 941 1080 1308 1054 893 859 750 590
6 6 4 4 2 3 8 178 355 526 777 1036 1059 1086 976 973 1149 872 709 894 588 466 400 559 805 594 594 683 471 600 603 983 955 1116 818 1019 935 862 703 772 605 588
7 7 8 4 2 3 21 230 12 174 487 756 1023 1035 1071 1122 806 582 509 497 397 381 80 878 1167 726 480 627 417 199 457 418 506 1040 769 694 771 737 696 629 712 881
3 5 5 4 3 3 16 298 247 9 164 533 836 987 998 816 800 557 363 519 425 383 467 574 608 429 487 392 494 386 362 1028 1309 1250 1077 867 762 743 741 806 1171 1135
3 4 5 2 2 2 70 341 279 180 220 259 654 965 692 647 520 463 406 516 530 440 680 739 528 690 615 430 277 297 831 637 958 1009 709 841 732 772 684 734 625 838
2 3 6 4 3 2 2 279 299 161 256 165 339 747 615 498 593 386 238 231 386 473 431 453 401 417 455 361 419 321 353 512 710 708 1051 924 950 802 691 722 658 533
3 5 4 6 3 1 1 240 371 295 217 277 11 386 299 326 326 544 295 284 463 412 399 416 444 350 359 362 440 306 288 492 1122 615 1032 1009 940 947 638 848 948 913
2 4 3 2 3 3 2 0 355 244 126 2 59 253 64 247 311 119 100 352 614 629 410 456 628 601 534 506 228 424 423 476 647 653 806 914 1046 1022 878 759 723 779
2 4 5 3 6 3 3 2 98 234 194 239 142 1 1 0 2 276 167 326 322 409 411 544 418 339 343 291 373 513 413 332 487 719 716 1196 1226 1100 1039 1002 938 804
1 1 3 3 2 3 1 0 0 13 170 65 125 2 4 2 0 3 214 279 282 292 397 376 333 348 417 398 426 339 352 698 580 1104 1334 1089 1064 1219 1043 631 615 823
3 2 3 1 5 2 1 4 0 0 71 2 102 144 140 3 158 163 175 206 241 189 287 310 276 237 244 310 336 279 308 361 450 1124 827 1298 1258 1106 1043 985 880 1249
3 3 4 2 2 4 4 2 2 1 0 55 71 3 95 89 6 68 134 174 146 176 254 184 193 305 295 328 360 378 400 106 105 289 523 549 948 1283 1232 1182 1249 1081
5 4 4 4 4 4 3 4 2 2 1 1 1 2 40 5 22 16 52 128 126 130 144 206 268 158 216 308 399 437 372 376 264 214 410 796 1001 932 861 858 794 951
6 5 5 5 6 6 5 8 4 2 1 1 1 2 3 58 8 8 8 88 137 132 111 101 201 212 228 339 410 507 482 494 447 452 636 500 578 937 455 754 810 912
1 5 5 4 5 8 6 8 6 6 4 4 2 1 0 74 112 11 4 6 71 124 89 42 166 184 174 235 373 450 515 496 488 462 404 714 613 459 667 675 812 1002
0 1 6 6 6 8 10 9 7 5 5 4 3 2 1 0 0 124 35 4 36 38 131 85 57 136 162 190 253 324 369 399 446 494 426 549 810 648 443 738 901 873
0 0 3 3 7 8 8 9 9 9 7 6 7 4 2 0 0 0 29 2 5 15 136 141 120 137 172 202 219 252 332 335 358 403 412 441 646 892 521 420 425 820
0 2 1 1 7 6 7 7 8 7 9 9 8 8 7 4 3 1 0 0 2 10 16 119 167 126 166 131 154 251 274 281 269 294 293 276 565 489 629 468 450 407
3 1 4 2 4 4 7 8 10 12 11 11 10 8 8 8 4 2 3 0 2 2 19 41 24 52 37 24 14 61 152 188 236 225 222 183 340 642 631 397 270 387
3 7 4 3 2 4 6 4 6 8 9 7 9 10 11 12 7 7 5 4 2 2 1 2 27 62 66 68 27 12 64 111 143 184 177 172 118 240 442 260 148 337
8 10 7 6 4 4 5 8 0 2 6 6 6 7 8 8 5 8 9 8 4 3 0 2 0 9 46 63 39 20 60 88 91 94 117 96 67 85 81 8 0 10
Wind_Speed
26 27 26 26 26 26 27 27 28 27 28 29 30 31 32 31 29 28 30 30 28 28 29 29 28 27 28 26 27 25 25 24 23 22 22 21 19 19 19 19 16 17
nan nan 27 26 25 26 25 26 26 26 26 27 29 30 30 30 32 30 30 29 27 27 31 33 29 26 29 26 25 24 24 25 23 23 22 21 20 20 21 19 18 18
nan nan nan nan 26 24 23 24 24 25 26 25 27 30 31 34 37 33 31 31 29 27 28 29 28 28 28 28 27 24 23 25 25 24 22 20 20 21 21 22 21 19
nan nan nan nan 28 26 25 25 25 25 26 26 28 29 31 34 38 37 29 29 30 29 28 27 26 26 26 28 27 27 25 25 26 25 24 22 22 20 20 22 25 26
nan nan nan nan nan nan 26 25 25 26 25 25 27 28 30 32 34 38 34 26 26 28 28 25 26 25 25 27 29 27 24 26 26 26 24 23 23 20 21 22 24 23
nan nan nan nan nan nan nan 25 25 25 23 22 24 26 27 28 31 31 31 28 25 26 27 26 28 23 25 25 27 28 25 25 25 24 25 25 25 24 23 22 23 21
nan nan nan nan nan nan nan 25 26 24 22 20 22 24 27 30 32 29 26 27 25 23 25 26 28 26 27 27 28 27 22 23 24 24 24 27 25 22 19 23 20 19
nan nan nan nan nan nan nan 26 nan 23 20 19 21 23 25 29 32 30 29 26 23 27 nan 27 29 28 27 26 26 24 19 23 22 22 22 25 25 20 20 21 21 20
nan nan nan nan nan nan nan 25 24 nan 20 20 22 23 26 30 32 32 31 29 29 25 20 28 26 24 26 23 22 23 18 20 23 23 23 23 22 21 19 20 22 22
nan nan nan nan nan nan nan 25 25 24 23 22 22 23 25 29 32 32 33 30 28 26 28 27 24 24 23 23 21 17 19 22 22 23 21 21 21 21 19 20 21 24
nan nan nan nan nan nan nan 28 28 27 26 24 23 23 24 27 31 33 30 25 24 25 27 24 22 21 23 21 22 24 22 20 22 21 22 21 21 21 21 20 23 21
nan nan nan nan nan nan nan 30 30 30 29 28 nan 24 24 28 27 28 26 24 22 24 26 27 26 25 23 20 19 20 20 15 23 24 22 21 20 19 19 23 22 22
nan nan nan nan nan nan nan nan 32 32 31 nan nan 29 nan 26 29 25 22 22 23 24 24 26 27 28 28 25 20 18 22 20 24 25 23 20 20 18 18 21 21 22
nan nan nan nan nan nan nan nan nan 34 34 33 33 nan nan nan nan 24 25 27 26 26 26 30 31 32 32 31 26 24 21 18 21 21 20 21 19 18 18 20 23 23
nan nan nan nan nan nan nan nan nan nan 35 nan 35 nan nan nan nan nan 24 29 30 29 27 29 30 32 33 33 30 29 24 21 22 21 21 19 18 18 20 22 22 22
nan nan nan nan nan nan nan nan nan nan nan nan 36 34 31 nan 26 26 24 26 28 30 29 33 38 38 41 40 35 30 30 30 22 24 20 18 17 17 19 21 23 25
nan nan nan nan nan nan nan nan nan nan nan nan nan nan nan nan nan nan 24 23 26 32 36 38 37 38 44 44 41 40 36 32 29 23 18 19 17 18 19 21 24 26
nan nan nan nan nan nan nan nan nan nan nan nan nan nan nan nan nan nan nan 24 24 31 34 35 35 41 43 42 39 37 36 32 27 24 23 21 20 18 19 21 24 26
nan nan nan nan nan nan nan nan nan nan nan nan nan nan nan nan nan nan nan nan 24 27 32 35 35 42 42 42 40 38 38 34 28 25 24 22 20 20 19 22 25 27
nan nan nan nan nan nan nan nan nan nan nan nan nan nan nan nan 33 nan nan nan nan 26 nan nan 36 42 43 43 40 39 38 35 28 26 25 23 21 20 21 23 25 27
nan nan nan nan nan nan nan nan nan nan nan nan nan nan nan nan nan 32 nan nan nan nan 27 nan nan 43 42 41 40 41 40 33 29 26 25 24 24 23 22 24 28 28
nan nan nan nan nan nan nan nan nan nan nan nan nan nan nan nan nan nan nan nan nan nan 28 29 31 41 45 42 39 39 40 33 32 29 26 25 25 28 23 23 30 33
nan nan nan nan nan nan nan nan nan nan nan nan nan nan nan nan nan nan nan nan nan nan nan 28 26 34 42 43 41 38 35 32 32 30 29 26 28 28 32 31 36 34
nan nan nan nan nan nan nan nan nan nan nan nan nan nan nan nan nan nan nan nan nan nan nan nan nan nan nan nan nan nan 37 31 31 32 32 32 28 30 32 38 41 44
nan nan nan nan nan nan nan nan nan nan nan nan nan nan nan nan nan nan nan nan nan nan nan nan nan nan nan nan nan nan nan 32 31 33 35 37 34 30 35 42 44 45
nan nan nan nan nan nan nan nan nan nan nan nan nan nan nan nan nan nan nan nan nan nan nan nan nan nan nan nan nan nan nan nan nan nan 37 nan nan nan nan nan nan nan
Wind_Direction
265 266 269 273 278 284 290 294 295 296 299 301 303 302 304 303 295 300 298 298 297 293 293 291 290 291 289 288 286 282 278 281 279 274 273 270 271 279 281 273 266 256
nan nan 273 277 283 287 288 292 295 299 302 303 303 303 302 299 291 291 294 292 291 290 284 284 286 292 286 281 285 280 275 272 275 269 269 274 266 272 277 276 262 256
nan nan nan nan 281 280 283 285 291 298 301 303 303 303 304 301 297 294 296 295 289 281 281 289 295 289 284 284 279 280 275 271 271 271 266 265 260 260 269 277 269 274
nan nan nan nan 280 281 282 287 290 293 295 298 300 301 302 301 298 297 296 298 296 288 279 280 283 285 287 286 282 277 273 266 265 268 266 259 255 256 260 261 268 263
nan nan nan nan nan nan 282 285 289 291 293 293 295 301 304 303 300 302 299 294 294 294 283 276 276 276 285 282 274 261 260 258 259 263 265 261 256 256 256 262 264 258
nan nan nan nan nan nan nan 282 285 285 287 292 298 303 305 302 301 303 303 300 294 287 280 282 273 276 275 279 270 257 253 256 259 265 264 260 255 254 254 260 260 260
nan nan nan nan nan nan nan 273 275 278 285 289 296 304 306 303 300 299 299 294 286 279 279 277 280 280 277 270 256 249 246 251 260 264 263 259 255 253 256 258 258 262
nan nan nan nan nan nan nan 269 nan 273 280 289 295 300 301 298 295 295 296 295 278 260 nan 279 277 280 278 269 260 252 247 251 255 260 257 258 256 255 258 257 256 261
nan nan nan nan nan nan nan 266 270 nan 279 289 296 301 301 300 299 296 293 289 279 273 264 271 270 275 271 262 252 247 245 253 254 254 254 253 253 252 251 254 258 258
nan nan nan nan nan nan nan 263 268 273 279 284 291 299 302 302 301 297 296 295 285 267 257 253 263 265 266 257 249 245 248 253 259 260 257 253 251 250 250 253 259 258
nan nan nan nan nan nan nan 263 267 272 278 280 286 292 294 298 304 305 299 293 282 270 268 264 256 254 244 242 242 239 235 241 260 266 260 256 251 249 249 253 255 261
nan nan nan nan nan nan nan 265 270 273 275 280 nan 281 290 296 300 305 302 297 286 272 265 264 259 251 243 232 235 237 239 249 262 262 262 257 253 251 256 252 253 260
nan nan nan nan nan nan nan nan 271 273 274 nan nan 279 nan 290 300 293 293 290 281 269 266 266 262 249 237 230 216 216 228 238 252 251 254 254 250 254 255 263 264 261
nan nan nan nan nan nan nan nan nan 273 275 277 278 nan nan nan nan 293 278 279 271 264 257 256 247 237 228 226 223 223 231 220 241 254 255 253 251 252 255 257 261 260
nan nan nan nan nan nan nan nan nan nan 275 nan 278 nan nan nan nan nan 271 259 259 253 253 258 251 240 233 229 222 218 205 219 226 244 251 247 254 258 258 258 256 260
nan nan nan nan nan nan nan nan nan nan nan nan 276 278 280 nan 282 287 275 260 247 240 243 247 240 235 223 214 219 219 213 213 217 234 237 251 252 256 262 267 269 265
nan nan nan nan nan nan nan nan nan nan nan nan nan nan nan nan nan nan 281 263 244 231 237 239 237 230 218 214 207 210 220 224 215 217 243 248 249 256 259 264 265 268
nan nan nan nan nan nan nan nan nan nan nan nan nan nan nan nan nan nan nan 274 250 230 228 234 229 222 218 213 211 214 228 226 220 221 217 227 243 249 254 260 265 269
nan nan nan nan nan nan nan nan nan nan nan nan nan nan nan nan nan nan nan nan 265 242 228 231 235 222 217 214 213 212 214 220 225 223 228 223 227 239 248 258 264 268
nan nan nan nan nan nan nan nan nan nan nan nan nan nan nan nan 273 nan nan nan nan 259 nan nan 236 223 219 215 215 215 214 220 228 226 226 229 229 229 239 253 262 266
nan nan nan nan nan nan nan nan nan nan nan nan nan nan nan nan nan 271 nan nan nan nan 255 nan nan 228 221 217 216 216 214 221 234 231 229 229 233 233 226 232 244 255
nan nan nan nan nan nan nan nan nan nan nan nan nan nan nan nan nan nan nan nan nan nan 263 256 244 235 226 220 217 218 215 229 233 232 230 230 231 237 239 240 239 238
nan nan nan nan nan nan nan nan nan nan nan nan nan nan nan nan nan nan nan nan nan nan nan 262 258 243 230 223 221 220 226 233 231 232 229 230 236 234 242 245 244 247
nan nan nan nan nan nan nan nan nan nan nan nan nan nan nan nan nan nan nan nan nan nan nan nan nan nan nan nan nan nan 224 230 232 232 229 228 231 238 247 255 252 243
nan nan nan nan nan nan nan nan nan nan nan nan nan nan nan nan nan nan nan nan nan nan nan nan nan nan nan nan nan nan nan 232 232 233 232 229 229 235 245 248 251 248
nan nan nan nan nan nan nan nan nan nan nan nan nan nan nan nan nan nan nan nan nan nan nan nan nan nan nan nan nan nan nan nan nan nan 235 nan nan nan nan nan nan nan